Location: Cardiff
(53.7833°N, 113.6000°W)
Time: 15:16:16
(UTC+00:00)

RS-15 - Pass Details

Date: 11 December 2023
Orbit: 1893 x 2151 km, 64.8° (Epoch: 27 February)

Event Time Altitude Azimuth Distance (km) Brightness Sun altitude
Rises 00:45:11 0° 151° (SSE) 5,651 10.4 -12.4°
Reaches altitude 10° 00:50:05 10° 135° (SE) 4,632 9.8 -13.1°
Maximum altitude 00:57:34 19° 96° (E) 3,866 9.0 -14.1°
Enters shadow 01:00:39 17° 77° (ENE) 3,984 9.0 -14.6°
